GFSNE_prec_radar_078.txt.gz
Reflectivity
31 15 -3 -20 -20 -20 -8 -5 -0 5 -19 -8 -20 -15 -20 -20 -19 -15 -20 -15 -5 -11 6 -20 -20 -20 -15 -0 7 -18 -20 -19 -3 -17 -20 -20 -20 -10
12 9 -0 -6 -20 -17 -4 7 5 -4 10 -8 -20 -20 -20 -20 -20 -20 -20 1 -7 -16 6 11 -12 -20 -20 -3 -15 -20 -20 -12 -9 -3 10 -11 -20 -20
-3 0 2 -0 -3 -16 -13 -0 3 7 -1 -10 -17 -19 -20 -20 1 1 -1 -11 16 9 -12 -8 -20 -20 -20 -4 -20 -10 -20 -20 7 -13 11 9 1 8
-20 -10 -13 -9 -3 -5 -19 -20 -4 1 -20 -18 -20 -19 -18 -0 7 -5 -15 -12 0 5 -20 -20 -16 -20 -4 -19 -20 -20 -2 8 -20 -4 6 12 17 19
-20 -20 -20 -20 -20 -19 -18 2 -20 -20 -20 -20 -20 -20 -20 -18 -5 0 -1 -1 -19 16 8 -19 -16 -9 7 -6 -7 6 -12 -20 -20 -13 8 19 -15 13
-20 -20 -20 -20 -20 -20 1 2 -20 -20 -20 -20 -20 -20 -20 -14 -5 7 10 10 -12 0 11 -20 -20 -20 -20 -20 -17 -20 -20 -20 -20 -20 2 10 16 15
-20 -20 -20 -20 -20 -20 -18 -11 -20 -20 -20 -20 -20 -18 -13 2 9 8 -9 11 1 -6 -20 -20 -20 -20 -20 -20 -20 -20 -20 -20 -20 -20 -20 -16 -3 8
-20 -20 -20 -20 -20 -20 -20 -20 -20 -20 -20 -20 -20 -13 9 11 18 14 -14 -13 -20 -20 -20 -20 -20 -20 -20 -20 -20 -20 -20 -20 -20 -20 -20 -20 -20 -20
-20 -20 -20 -20 -20 -7 -20 -20 -20 -20 -20 -18 -20 -20 -20 5 -20 -20 -20 -20 -20 -20 -20 -20 -20 -20 -20 -20 -20 -20 -20 -20 -20 -20 -20 -20 -20 -20
-20 -20 -20 -20 -18 -20 -20 -20 -20 -20 -20 -18 -20 -20 -20 -20 -20 -20 -20 -20 -20 -20 -20 -19 -20 -20 -20 -20 -20 -20 -20 -20 -20 -20 -20 -20 -20 -20
-20 -20 -20 -20 -5 1 -20 -20 -20 -20 -20 -20 -20 -20 -18 -3 4 -20 -20 -20 -19 -3 -11 -20 -20 -11 -20 -20 -20 -20 -20 -20 -20 -20 -20 -20 -20 -20
-20 -20 -20 -19 2 -20 -20 -20 -20 -20 -20 -20 -20 -20 -20 -20 -20 -20 -20 -20 -20 -20 -20 -20 -9 -3 -20 -19 -5 -20 -20 -20 -20 -20 -20 -20 -20 -17
-20 -20 -20 -20 -20 -9 -19 -20 -20 -20 -20 -20 -20 -20 -20 -20 -20 -20 -20 -20 -20 -20 -16 -20 -20 -20 -20 -14 -20 -18 -11 -19 -12 -16 -18 -20 -20 -20
-20 -20 -20 4 5 -18 -2 -20 -20 -20 -20 -20 -20 -20 -20 -20 -20 -20 -20 -20 -20 -12 -20 -19 -20 -20 -20 -20 -20 -20 -20 -18 -20 -20 -20 -20 -20 -20
-20 -20 -20 -20 -20 -20 -20 -20 -20 -20 -20 -20 -20 -20 -20 -20 -20 -20 -20 -20 -20 -20 -20 -20 -20 -20 -20 -20 -20 -20 -20 -20 -20 -20 -20 -20 -20 -20
-9 -17 -20 -20 -20 -20 -20 -4 -20 -20 -20 -20 -20 -20 -20 -20 -20 -20 -20 -20 -20 -20 -20 -20 -20 -20 -20 -20 -20 -20 -20 -20 -20 -20 -20 -20 -20 -20
-20 -20 -20 -20 -20 -20 -20 -1 -20 -20 -20 -20 -20 -20 -20 -20 -20 -20 -20 -20 -20 -20 -20 -20 -20 -20 -20 -20 -20 -20 -20 -20 -20 -20 -20 -20 -20 -20
12 -16 -20 -20 -20 -20 -20 -20 -20 -20 -20 -20 -20 -20 -20 -20 -20 -20 -20 -20 -20 -20 -20 -20 -20 -20 -20 -20 -20 -20 -20 -20 -20 -20 -20 -20 -20 -20
17 -16 -20 -20 -20 -20 -20 -20 -20 -20 -20 -20 -20 -20 -20 -20 -20 -20 -20 -20 -20 -20 -20 -20 -20 -20 -20 -20 -20 -20 -20 -20 -20 -20 -20 -20 -20 -20
12 -20 -20 -20 -20 -20 -20 -20 -20 -20 -20 -20 -20 -20 -20 -20 -20 -20 -20 -20 -20 -20 -20 -20 -20 -20 -20 -20 -20 -20 -20 -20 -20 -20 -20 -20 -20 -20
-3 -17 -20 -20 -19 -11 -20 -20 -20 -12 -2 -20 -20 -20 -20 -20 -20 -20 -20 -20 -20 -20 -20 -20 -20 -20 -20 -20 -20 -20 -20 -20 -20 -20 -20 -12 -20 -20
-6 -10 -20 -7 19 13 -20 -20 -20 -4 -1 -20 -20 -20 -20 -20 -20 -20 -20 -20 -20 -20 -20 -20 -20 -20 -20 -20 -20 -20 -20 -20 -20 -20 -8 -9 -20 -20
23 5 -0 11 13 -18 -20 -20 -11 -3 -20 -20 -20 -20 -20 -20 -20 -20 -20 -20 -20 -20 -20 -20 -20 -20 -20 -20 -20 -20 -20 -20 -20 -20 -20 -20 -20 -20

GFSNE_prec_radar_081.txt.gz
Reflectivity
22 23 14 15 22 -0 -11 -14 -19 -19 -20 -18 -14 -10 -20 -20 -20 -20 -20 -4 -9 -11 -17 5 -14 -1 3 9 -13 -20 -20 -20 -19 9 15 -17 -20 -20
-20 -17 -2 12 7 6 7 10 -0 -3 -8 -20 -20 -18 -16 -20 -20 -20 -20 -12 -7 -5 -12 -3 -8 9 2 -5 10 -10 -20 -13 -5 12 11 7 -20 -20
-20 -13 -17 -19 -1 3 2 -8 1 -9 2 -17 -19 -19 -16 -18 -20 -20 -20 -16 -20 7 -18 11 -2 -20 4 11 -12 -19 -20 -13 16 5 -13 -5 -4 -14
-20 -20 -20 -20 -19 -18 -10 -12 -8 -20 -15 -20 -20 -20 -20 -20 -20 -20 -16 -3 -8 14 -7 16 -0 -20 -19 -20 -20 -20 -17 -4 13 -0 -8 6 16 20
-20 -20 -20 -20 -20 -20 -20 -17 -8 -20 -20 -20 -20 -20 -20 -11 -20 -19 -6 -5 3 17 7 -9 -5 -20 -20 -20 -20 -20 -19 -20 -20 -19 13 13 23 14
-20 -20 -20 -20 -20 -20 -20 -20 -20 -20 -20 -20 -20 -20 -20 -20 -20 -20 -20 -20 -14 5 14 -5 -5 -20 -20 -20 -20 -20 -16 -8 -10 4 12 13 12 10
-20 -20 -20 -20 -20 -20 -20 -20 -20 -11 -20 -20 -20 -20 -20 -20 -20 -20 -20 2 9 0 -19 -19 -18 -20 -20 -20 -20 -20 -20 -16 -20 -20 -20 -14 -4 16
-20 -20 -20 -20 -20 -20 -20 -20 -10 -20 0 -20 -20 -20 -20 -20 -20 -20 -1 17 -5 -20 -20 -20 -20 -20 -20 -20 -20 -20 -20 -20 -20 -20 -20 -20 -20 -9
-20 -20 -20 -20 -20 -20 -20 -20 -20 -14 -20 -18 -20 -20 -20 -20 -20 -20 1 -10 7 -19 -20 -20 -20 -20 -20 -20 -20 -20 -20 -20 -16 -4 -13 -20 -20 -20
-20 -20 -20 -20 -10 -12 -20 -20 -20 -20 -20 -20 -20 -20 -20 -20 -20 -20 -6 -13 -18 -20 -20 -20 -20 -20 -20 -20 -20 -12 4 -20 -20 -20 -20 -20 -20 -20
-20 -20 -20 -20 -20 -20 -20 -20 -20 -20 -20 -13 -11 -20 -16 8 4 -13 -19 -20 -20 -20 -20 -20 -20 -20 -20 -19 -10 -7 -20 -20 -18 -20 -20 -20 -20 -20
-20 -20 6 -15 -20 -9 -14 -20 -20 -20 -20 -20 -20 -20 -20 -20 -20 -20 -20 -20 -20 -20 -20 -20 -20 -20 -10 -20 -20 -20 -20 -20 -15 -19 -20 -20 -20 -20
-20 -20 -20 -20 -20 5 12 -20 -14 -20 -20 -20 -20 -20 -20 -20 -20 -20 -20 -20 -20 -20 -20 -20 -20 -20 -20 -20 -20 -20 -20 -20 -20 -20 -20 -20 -20 -20
-20 -20 -20 -20 -13 13 10 9 -20 -20 -20 -20 -20 -20 -20 -20 -20 -20 -20 -20 -20 -20 -20 -20 -20 -20 -20 -20 -20 -20 -20 -20 -20 -20 -13 -19 -19 -20
-20 -20 -20 -20 -6 7 11 -3 -20 -20 -20 -20 -20 -20 -20 -20 -20 -20 -20 -20 -20 -20 -20 -20 -20 -20 -20 -20 -20 -20 -20 -20 -20 -20 -20 -20 -20 -20
5 -20 -20 -20 -20 -20 -3 -2 -20 -20 -20 -20 -20 -20 -20 -20 -20 -20 -20 -20 -20 -20 -20 -20 -20 -20 -20 -20 -20 -20 -20 -20 -20 -20 -20 -20 -20 -20
29 26 2 -19 -20 -20 -20 -19 -20 -20 -20 -20 -20 -20 -20 -20 -20 -20 -20 -20 -20 -20 -20 -20 -20 -20 -20 -20 -20 -20 -20 -20 -20 -20 -20 -20 -20 -20
16 9 4 -18 -20 -16 -16 -5 -20 -20 -20 -20 -20 -20 -20 -20 -20 -20 -20 -20 -20 -20 -20 -20 -20 -20 -20 -20 -20 -20 -20 -20 -20 -20 -20 -20 -20 -20
23 0 -19 -20 -20 -18 13 -17 -20 -20 -20 -20 -20 -20 -20 -20 -20 -20 -20 -20 -20 -20 -20 -20 -20 -20 -20 -20 -20 -20 -20 -20 -20 -20 -20 -20 -20 -20
17 8 -15 -19 -10 25 20 -4 -17 -20 -20 -20 -20 -20 -20 -20 -20 -20 -20 -20 -20 -20 -20 -20 -20 -20 -20 -20 -20 -20 -20 -20 -20 -20 -20 -20 -20 -20
1 12 -2 8 17 24 16 11 -17 -20 -20 -20 -20 -20 -20 -20 -20 -20 -20 -20 -20 -20 -20 -20 -20 -20 -20 -20 -20 -20 -20 -20 -20 -20 -20 -20 -20 -20
15 22 24 33 34 27 22 13 -10 -20 -20 -20 -18 -20 -20 -20 -20 -20 -20 -20 -20 -20 -20 -20 -20 -20 -20 -20 -20 -20 -20 -20 -20 -20 -20 -20 -20 -20
31 27 31 30 31 27 22 19 -20 -20 -20 -20 -20 -20 -20 -0 -20 -20 -20 -20 -20 -20 -20 -20 -20 -20 -20 -20 -20 -20 -20 -20 -20 -20 -20 -20 -20 -20

GFSNE_prec_radar_084.txt.gz
Reflectivity
-20 -10 5 17 16 18 12 18 14 8 -6 -10 -20 -20 -20 -20 -20 -20 -20 -20 12 -12 7 -20 -7 -5 -19 -20 -20 11 -2 -20 -20 -14 1 8 0 -19
30 -20 -20 -19 -16 -19 -20 -19 -11 -4 2 6 -2 -17 -20 -20 -16 -19 -20 -20 -16 6 -7 -20 -20 -10 -20 -20 -19 5 1 -20 -20 9 9 -1 1 -17
23 -20 -18 -10 -8 -9 -17 -19 -20 -17 -8 -19 -20 -20 -20 -20 -20 -20 -12 -20 -15 -7 -6 -12 -10 -10 2 -20 9 9 -20 -20 -20 -20 -9 2 -1 3
-2 -7 -5 -16 -20 -9 -11 -15 -20 -14 -20 -15 -20 -20 1 -20 -20 -20 -19 -12 -12 -9 -2 -7 1 -20 -20 -20 -20 -19 -20 -20 -20 -20 -20 -5 6 4
-14 -11 -7 -7 -1 -14 -20 -20 -20 -20 -20 -20 -20 2 -15 5 -20 -20 -20 -20 -20 -18 -4 2 2 7 -16 -20 -20 -20 -20 -20 -20 -20 -20 -9 27 13
-20 -8 -20 -20 -20 -20 -20 -20 -20 -20 -20 -12 4 -6 -20 -13 -20 -20 -20 -20 -20 -20 7 -10 5 2 -18 -20 -20 -20 -20 -20 -20 -20 -14 -20 2 20
17 -20 -20 -20 -20 -20 -20 -20 -20 -20 -20 -9 0 -18 -15 -14 -20 -20 -20 -20 -20 -18 -0 6 6 -11 -13 -20 -20 -20 -20 -20 -20 -20 -19 4 -7 0
-19 -20 -20 -8 -20 -20 -20 -20 -20 -20 -20 -20 -20 -6 -16 -20 -20 -20 -20 -12 -12 -20 -20 -10 -10 -20 -20 -20 -20 -20 -20 -20 -20 -20 -2 3 2 11
-9 -14 -20 -20 -13 -20 -20 -20 -20 -20 -20 -20 -16 3 -14 -20 -20 -20 -20 5 -5 -0 -8 -20 -20 -20 -20 -20 -20 -20 -20 -20 -20 -20 -20 -20 -20 -20
-20 -18 -13 -20 -20 -20 -20 -20 -20 -20 -20 -17 -20 -20 -20 -20 -20 -20 -19 -3 -4 -14 -19 -20 -20 -20 -20 -20 -20 -20 -20 -20 -20 -20 -20 -7 -11 -20
-20 -20 -20 -20 -20 -2 -20 -20 -20 -20 -20 -20 -20 -20 -7 -11 1 -20 -20 -20 -20 -20 -20 -20 -20 -20 -20 -20 -20 -20 -18 -10 -19 -20 -20 -20 -20 -20
-20 -20 -11 -20 2 9 -20 -20 -20 -20 -20 -20 -20 -20 -9 -19 -9 -20 -20 -20 -20 -20 -20 -20 -20 -20 -20 -20 -20 -20 -20 -20 -4 -8 -3 3 -15 -20
-20 -20 -20 -20 8 -4 -4 -20 -20 -20 -20 -20 -20 -20 -20 -20 -20 -20 -20 -20 -20 -20 -20 -20 -20 -20 -20 -20 -20 -20 -20 -20 -20 -20 -20 -20 -16 -20
-18 -16 -20 -20 6 -15 -0 -20 -20 -1 -20 -20 -20 -20 -20 -20 -20 -20 -20 -20 -20 -20 -20 -20 -20 -20 -20 -20 -20 -20 -20 -20 -20 -20 -20 -20 -20 -20
6 14 7 -1 -20 7 0 -20 5 -15 -20 -20 -20 -20 -20 -20 -20 -20 -20 -20 -20 -20 -20 -20 -20 -20 -20 -20 -20 -20 -20 -20 -20 -20 -20 -20 -20 -20
14 20 17 17 -6 -20 -20 6 -20 -20 -20 -20 -20 -20 -20 -20 -20 -20 -20 -20 -20 -20 -20 -20 -20 -20 -20 -20 -20 -20 -20 -20 -20 -20 -20 -20 -20 -20
28 23 31 29 1 -13 -20 -19 -10 -20 -20 -20 -20 -20 -20 -20 -20 -20 -20 -20 -20 -20 -20 -20 -20 -20 -20 -20 -20 -20 -20 -20 -20 -20 -20 -20 -20 -20
28 17 25 23 9 -7 -14 -18 -18 -4 -20 -20 -20 -20 -20 -20 -20 -20 -20 -20 -20 -20 -20 -20 -20 -20 -20 -20 -20 -20 -20 -20 -20 -20 -20 -20 -20 -20
31 17 5 20 28 31 -3 -10 -20 -19 13 -13 -11 -20 -20 -20 -20 -20 -20 -20 -20 -20 -20 -20 -20 -20 -20 -20 -20 -20 -20 -20 -20 -20 -20 -20 -20 -20
26 26 1 20 30 5 -20 17 23 -5 -20 -5 2 -20 -20 -20 -20 -20 -20 -20 -20 -20 -20 -20 -20 -20 -20 -20 -20 -20 -20 -20 -20 -20 -20 -20 -20 -20
21 30 17 -10 -0 6 -3 26 28 15 -6 11 8 -20 -20 -20 -20 -20 -20 -20 -20 -20 -20 -20 -20 -20 -20 -20 -20 -20 -20 -20 -20 -20 -20 -20 -20 -20
15 27 28 15 7 25 30 31 29 29 26 9 -20 -20 -20 -20 -20 -19 -20 -17 -20 -20 -20 -20 -20 -20 -20 -20 -20 -20 -20 -20 -20 -20 -20 -20 -20 -20
21 1 22 26 23 24 34 35 31 27 12 -20 -20 -20 -20 -20 -20 -15 -20 1 -20 -20 -20 -20 -20 -20 -20 -20 -20 -20 -20 -20 -20 -20 -20 -20 -20 -20

GFSNE_prec_radar_090.txt.gz
Reflectivity
25 -3 -20 17 38 23 24 13 26 38 13 22 21 0 -6 -2 -20 -20 -20 -20 -20 -20 -20 12 4 -8 -18 -3 -20 5 -0 -18 -20 9 -7 3 10 5
12 7 -3 12 9 31 9 -6 10 12 12 10 13 7 -8 -15 -14 -20 -20 -9 -12 -20 -20 -20 -20 -20 -20 -20 -20 -20 -15 -20 13 15 10 4 11 16
11 10 -9 -16 20 39 20 25 20 8 -16 -16 10 10 4 -9 -14 -19 -14 -18 -20 -20 -20 -15 -20 -20 -10 -20 1 -20 3 -14 8 -10 -16 -8 3 8
6 16 16 -20 -2 15 31 6 10 -11 19 -20 -20 -20 -18 -18 -15 -20 -20 -20 -20 -20 -7 -20 -9 5 10 5 9 5 -9 -20 -20 -20 -20 -20 -20 -2
8 -20 18 -9 8 15 18 9 -20 -20 -20 -20 -20 -20 -20 -20 -20 -20 -20 -20 -20 -0 10 1 -16 -17 2 -9 -6 -11 -2 -20 -20 -20 -20 -20 -20 -15
-17 -1 -5 -4 -3 16 36 -16 -20 -20 -20 -20 -20 -20 -20 -20 -20 -20 -20 -20 -20 -9 6 -10 -11 -20 -20 -20 -9 -1 -20 -20 -20 -20 -20 -20 -20 1
-17 -20 -5 10 20 21 29 -20 -20 -13 -13 5 -15 -20 -20 -20 -20 -20 -20 -20 -20 -20 -20 -20 -20 -20 -20 -15 -4 -13 -20 -20 -20 -20 -20 -20 -20 10
-20 -20 -19 18 11 17 -15 -20 -20 -18 10 -14 -20 -20 -20 -20 -20 -20 -20 -20 -20 -20 -20 -20 -20 -20 -20 -12 13 -4 -20 -20 -20 -20 -20 -20 -20 2
-20 -5 -20 -7 5 8 -6 35 20 26 -12 5 -16 -20 -20 -20 -20 -20 -20 1 -20 -20 -20 -20 -20 -20 -20 -10 -2 -20 -20 -20 -20 -20 -20 -20 -20 -20
-20 -20 -20 -20 -20 -20 -20 -20 -7 23 32 -8 -20 -20 -20 -20 -20 -20 -20 -18 -20 -20 -20 -20 -20 -20 -20 -20 -20 -20 -20 -20 -20 -20 -20 -20 -20 -20
-20 -20 -20 -20 -20 -17 -12 -20 -19 0 -3 -6 -19 -20 -20 -20 -20 -20 -20 -20 -20 -20 -20 -20 -20 -20 -20 -20 -20 -20 -20 -20 -20 4 -20 -20 -20 -20
-20 -20 -19 -18 -20 -20 -20 -20 -20 -20 -20 -18 -20 -20 -20 -20 -18 -20 -20 -20 -20 -20 -20 -20 -20 -20 -20 -20 -20 -20 -20 -20 -20 -12 -20 -20 -20 -20
-20 -20 -20 12 10 8 -4 -20 -20 -20 -20 -20 -20 -20 -20 -20 -20 -20 -20 -20 -20 -20 -17 -20 -20 -20 -20 -20 -20 -20 -20 -20 -20 -5 -20 -20 -20 -20
-11 -20 -10 4 9 10 9 9 10 -1 -20 -20 -20 -20 -20 -20 -20 -20 -20 -20 -20 -20 -20 -20 -20 -20 -20 -20 -20 -20 -20 -20 -20 -20 -20 -20 -20 -20
-3 14 12 13 12 12 14 18 11 6 -14 -20 -20 -20 -20 -20 -20 -20 -20 -20 -20 -20 -19 -20 -20 -20 -20 -20 -20 -20 -20 -20 -20 -20 -20 -20 -20 -20
-20 -6 -3 12 16 21 21 16 20 16 -0 -5 -15 -13 -18 -20 -20 -20 -20 -20 -20 -20 -20 -20 -20 -20 -20 -20 -20 -20 -20 -20 -20 -20 -20 -20 -20 -20
-1 -10 -14 -19 7 26 24 22 28 20 15 2 14 26 -18 -20 -16 -20 -20 -20 -20 -20 -20 -20 -20 -20 -20 -20 -20 -20 -20 -20 -20 -20 -20 -20 -20 -20
-1 -15 9 -10 -12 11 25 33 25 26 21 26 6 21 14 -20 -20 -20 -20 -20 -12 -17 -20 -20 -20 -20 -20 -20 -20 -20 -20 -20 -20 -20 -20 -20 -20 -20
-10 -20 7 10 11 -3 18 24 21 26 19 27 22 19 17 18 -8 -19 2 9 -9 -11 -20 -20 -20 -20 -20 -20 -20 -20 -20 -20 -20 -20 -20 -20 -20 -20
-20 8 1 -9 -15 16 15 18 25 24 32 28 19 17 17 23 14 -14 -20 7 9 -16 -20 -20 -20 -20 -20 -20 -20 -20 -20 -20 -20 -20 -20 -20 -20 -20
-11 4 -2 1 -1 12 19 18 28 23 18 31 14 10 -11 4 14 19 -9 20 5 -10 -20 -20 -10 -20 -20 -20 -20 -20 -20 -20 -20 -20 -20 -20 -20 -20
-1 -4 -19 -6 2 3 6 12 22 31 24 27 15 2 -1 4 18 12 12 16 15 -4 9 -2 -19 -20 -20 -4 -20 -20 -20 -20 -20 -20 -20 -20 -20 -20
3 1 -3 -17 4 6 17 19 15 24 23 -9 17 11 -5 16 20 14 9 21 15 8 -10 -20 -20 -20 -13 -19 -20 -20 -20 -20 -20 -20 -20 -20 -20 -20